This demonstration page uses our WeatherBlox Daily Observations layout. Learn more.

Left ArrowRight Arrow

Hourly Observations for February 21, 2017

Temp ( °F °C ) Dew Point ( °F °C ) Humidity (%) Winds ( mph kmh ) Pressure ( in mb ) Visibility ( mi km ) Precip ( " mm )
12:51 am 00:51 Clear 46 7.8 41 5 83 83 N N/A 30.25 1024 10 16 N/A
1:51 am 01:51 Clear 45 7.2 40 4.4 83 83 N N/A 30.25 1024 10 16 N/A
2:51 am 02:51 Clear 42 5.6 38 3.3 85 85 N N/A 30.25 1024 10 16 N/A
3:51 am 03:51 Clear 42 5.6 39 3.9 89 89 SE 6 9 30.24 1024 10 16 N/A
4:51 am 04:51 Clear 41 5 39 3.9 93 93 ESE 3 6 30.24 1024 10 16 N/A
5:51 am 05:51 Clear 39 3.9 38 3.3 96 96 ESE 5 7 30.26 1025 10 16 N/A
6:51 am 06:51 Clear 40 4.4 38 3.3 93 93 E 6 9 30.28 1025 10 16 N/A
7:51 am 07:51 Sunny 46 7.8 42 5.6 86 86 N N/A 30.29 1026 10 16 N/A
8:51 am 08:51 Sunny 52 11.1 43 6.1 72 72 N N/A 30.29 1026 10 16 N/A
9:51 am 09:51 Sunny 56 13.3 42 5.6 60 60 SSW 3 6 30.29 1026 10 16 N/A
10:51 am 10:51 Sunny 59 15 43 6.1 56 56 VRB 5 7 30.28 1026 10 16 N/A
11:51 am 11:51 Sunny 62 16.7 43 6.1 50 50 WSW 5 7 30.24 1024 10 16 N/A
12:51 pm 12:51 Sunny 68 20 43 6.1 40 40 WNW 7 11 30.20 1023 10 16 N/A
1:51 pm 13:51 Sunny 70 21.1 42 5.6 37 37 W 5 7 30.14 1021 10 16 N/A
2:51 pm 14:51 Sunny 74 23.3 41 5 31 31 W 8 13 30.11 1020 10 16 N/A
3:51 pm 15:51 Sunny 75 23.9 42 5.6 31 31 W 9 15 30.09 1019 10 16 N/A
4:51 pm 16:51 Sunny 75 23.9 38 3.3 26 26 W 10 17 30.07 1018 10 16 N/A
5:51 pm 17:51 Sunny 73 22.8 37 2.8 27 27 NW 12 19 30.09 1019 10 16 N/A
6:51 pm 18:51 Clear with Light Rain 65 18.3 38 3.3 37 37 NW 5 7 30.10 1019 10 16 N/A
7:51 pm 19:51 Clear 60 15.6 38 3.3 44 44 NW 6 9 30.11 1020 10 16 N/A
8:51 pm 20:51 Clear with Light Rain 57 13.9 38 3.3 49 49 NW 7 11 30.11 1020 10 16 N/A
9:51 pm 21:51 Clear 56 13.3 38 3.3 51 51 NNW 5 7 30.11 1020 10 16 N/A
10:51 pm 22:51 Clear 53 11.7 38 3.3 57 57 N N/A 30.11 1020 10 16 N/A
11:51 pm 23:51 Clear 50 10 38 3.3 63 63 E 5 7 30.10 1019 10 16 N/A

Powered by AerisWeather